Weather History for Gustavus, AK

Change the Weather History Date:

Monday, December 30, 2013

  Actual Average Record
Temperature  
Mean Temperature 35 °F -  
Max Temperature 37 °F 33 °F 46 °F (1963)
Min Temperature 33 °F 24 °F -1 °F (1951)
Degree Days  
Heating Degree Days 30    
Moisture  
Dew Point 33 °F    
Average Humidity 93    
Maximum Humidity 93    
Minimum Humidity 87    
Precipitation  
Precipitation 0.00 in - - ()
Sea Level Pressure  
Sea Level Pressure 29.61 in    
Wind  
Wind Speed 5 mph (SSE)    
Max Wind Speed 15 mph    
Max Gust Speed 18 mph    
Visibility 8 miles    
Events      
Averages and records for this station are not official NWS values.
T = Trace of Precipitation, MM = Missing Value Source: NWS Daily Summary

Daily Weather History Graph

Daily Weather History Graph

Search for Another Location

Airport:

Trip Planner

Search our weather history database for the weather conditions in past years. The results will help you decide how hot, cold, wet, or windy it might be!

Date:

Astronomy

Dec. 30, 2013 Rise Set
Actual Time 8:52 AM AKST 3:19 PM AKST
Civil Twilight 7:59 AM AKST 4:11 PM AKST
Nautical Twilight 7:06 AM AKST 5:04 PM AKST
Astronomical Twilight 6:17 AM AKST 5:53 PM AKST
Moon 6:37 AM AKST (12/30) 2:12 PM AKST (12/30)
Length of Visible Light 8h 12m
Length of Day
6h 27m
Waning Crescent, 4% of the Moon is Illuminated
Dec 30
Waning Crescent
Jan 1
New
Jan 7
First Quarter
Jan 15
Full
Jan 23
Last Quarter

Hourly Weather History & Observations

Time (AKST) Temp. Windchill Dew Point Humidity Pressure Visibility Wind Dir Wind Speed Gust Speed Precip Events Conditions
12:16 AM 33.8 °F 28.6 °F 32.0 °F 93% 29.77 in 5.0 mi NNW 5.8 mph - N/A   Overcast
12:36 AM 33.8 °F 28.6 °F 32.0 °F 93% 29.75 in 5.0 mi NW 5.8 mph - N/A   Overcast
12:56 AM 33.8 °F 27.7 °F 32.0 °F 93% 29.73 in 4.0 mi NNW 6.9 mph - N/A   Overcast
1:16 AM 33.8 °F 28.6 °F 32.0 °F 93% 29.70 in 10.0 mi NW 5.8 mph - N/A   Overcast
1:36 AM 33.8 °F 30.8 °F 32.0 °F 93% 29.69 in 10.0 mi WNW 3.5 mph - N/A   Overcast
1:56 AM 33.8 °F 30.8 °F 32.0 °F 93% 29.68 in 8.0 mi West 3.5 mph - N/A   Overcast
2:16 AM 33.8 °F - 32.0 °F 93% 29.66 in 4.0 mi Calm Calm - N/A   Overcast
2:36 AM 33.8 °F - 32.0 °F 93% 29.65 in 2.0 mi Calm Calm - N/A   Overcast
2:56 AM 33.8 °F - 32.0 °F 93% 29.63 in 2.5 mi Calm Calm - N/A   Overcast
3:16 AM 33.8 °F - 32.0 °F 93% 29.62 in 3.0 mi Calm Calm - N/A   Overcast
3:36 AM 33.8 °F - 32.0 °F 93% 29.61 in 1.8 mi Calm Calm - N/A   Overcast
3:56 AM 33.8 °F - 32.0 °F 93% 29.60 in 2.0 mi Calm Calm - N/A   Overcast
4:16 AM 33.8 °F - 32.0 °F 93% 29.58 in 1.5 mi Calm Calm - N/A   Overcast
4:36 AM 33.8 °F - 32.0 °F 93% 29.57 in 1.8 mi Calm Calm - N/A   Overcast
4:56 AM 33.8 °F - 32.0 °F 93% 29.55 in 1.8 mi Calm Calm - N/A   Overcast
5:16 AM 33.8 °F - 32.0 °F 93% 29.54 in 2.0 mi Calm Calm - N/A   Overcast
5:36 AM 33.8 °F - 32.0 °F 93% 29.53 in 1.5 mi Calm Calm - N/A   Overcast
5:56 AM 33.8 °F - 32.0 °F 93% 29.52 in 1.5 mi Calm Calm - N/A   Overcast
6:16 AM 33.8 °F - 32.0 °F 93% 29.52 in 2.5 mi Calm Calm - N/A   Overcast
6:36 AM 33.8 °F - 32.0 °F 93% 29.51 in 5.0 mi Calm Calm - N/A   Overcast
6:56 AM 33.8 °F - 32.0 °F 93% 29.51 in 4.0 mi Calm Calm - N/A   Overcast
7:16 AM 33.8 °F - 32.0 °F 93% 29.51 in 3.0 mi Calm Calm - N/A   Overcast
7:36 AM 33.8 °F - 32.0 °F 93% 29.50 in 5.0 mi Calm Calm - N/A   Overcast
7:56 AM 33.8 °F - 32.0 °F 93% 29.50 in 5.0 mi Calm Calm - N/A   Overcast
8:16 AM 33.8 °F - 32.0 °F 93% 29.50 in 8.0 mi Calm Calm - N/A   Overcast
8:36 AM 33.8 °F - 32.0 °F 93% 29.50 in 9.0 mi Calm Calm - N/A   Overcast
8:56 AM 33.8 °F - 32.0 °F 93% 29.51 in 10.0 mi Calm Calm - N/A   Overcast
9:16 AM 33.8 °F - 32.0 °F 93% 29.51 in 10.0 mi Calm Calm - N/A   Overcast
9:36 AM 33.8 °F - 32.0 °F 93% 29.51 in 10.0 mi Calm Calm - N/A   Overcast
9:56 AM 33.8 °F - 32.0 °F 93% 29.51 in 10.0 mi Calm Calm - N/A   Overcast
10:16 AM 33.8 °F - 32.0 °F 93% 29.53 in 10.0 mi Calm Calm - N/A   Overcast
10:36 AM 33.8 °F - 32.0 °F 93% 29.53 in 9.0 mi Calm Calm - N/A   Overcast
10:56 AM 35.6 °F 29.2 °F 33.8 °F 93% 29.53 in 10.0 mi SSE 8.1 mph - N/A   Mostly Cloudy
11:16 AM 35.6 °F 29.9 °F 33.8 °F 93% 29.52 in 10.0 mi SE 6.9 mph - N/A   Overcast
11:36 AM 35.6 °F 29.2 °F 33.8 °F 93% 29.52 in 10.0 mi SE 8.1 mph - N/A   Overcast
11:56 AM 35.6 °F 28.6 °F 33.8 °F 93% 29.53 in 10.0 mi SSE 9.2 mph - N/A   Overcast
12:16 PM 35.6 °F 28.0 °F 33.8 °F 93% 29.53 in 10.0 mi South 10.4 mph - N/A   Overcast
12:36 PM 35.6 °F 28.0 °F 33.8 °F 93% 29.54 in 10.0 mi South 10.4 mph 18.4 mph N/A   Overcast
12:56 PM 35.6 °F 27.5 °F 33.8 °F 93% 29.55 in 10.0 mi SSE 11.5 mph 18.4 mph N/A   Overcast
1:16 PM 35.6 °F 27.1 °F 33.8 °F 93% 29.56 in 10.0 mi SSE 12.7 mph 17.3 mph N/A   Overcast
1:36 PM 35.6 °F 27.5 °F 33.8 °F 93% 29.56 in 10.0 mi SSE 11.5 mph 18.4 mph N/A   Overcast
1:56 PM 35.6 °F 28.0 °F 33.8 °F 93% 29.57 in 10.0 mi SSE 10.4 mph - N/A   Overcast
2:16 PM 35.6 °F 28.0 °F 33.8 °F 93% 29.58 in 10.0 mi South 10.4 mph - N/A   Overcast
2:36 PM 35.6 °F 27.1 °F 33.8 °F 93% 29.59 in 10.0 mi SSE 12.7 mph 16.1 mph N/A   Overcast
2:56 PM 35.6 °F 28.0 °F 33.8 °F 93% 29.59 in 10.0 mi SSE 10.4 mph - N/A   Overcast
3:16 PM 35.6 °F 29.2 °F 33.8 °F 93% 29.60 in 9.0 mi SSE 8.1 mph 17.3 mph N/A   Overcast
3:36 PM 35.6 °F 28.0 °F 33.8 °F 93% 29.61 in 8.0 mi SSE 10.4 mph - N/A   Overcast
3:56 PM 35.6 °F 27.5 °F 33.8 °F 93% 29.62 in 9.0 mi SSE 11.5 mph - N/A   Overcast
4:16 PM 35.6 °F 28.0 °F 33.8 °F 93% 29.63 in 7.0 mi SSE 10.4 mph 18.4 mph N/A   Overcast
4:36 PM 35.6 °F 27.5 °F 33.8 °F 93% 29.63 in 10.0 mi SE 11.5 mph - N/A   Overcast
4:56 PM 37.4 °F 29.8 °F 33.8 °F 87% 29.64 in 10.0 mi SE 11.5 mph 17.3 mph N/A   Overcast
5:16 PM 37.4 °F 29.8 °F 33.8 °F 87% 29.64 in 10.0 mi SSE 11.5 mph 17.3 mph N/A   Overcast
5:36 PM 37.4 °F 30.3 °F 33.8 °F 87% 29.64 in 7.0 mi SE 10.4 mph - N/A   Overcast
5:56 PM 37.4 °F 30.8 °F 33.8 °F 87% 29.65 in 10.0 mi SSE 9.2 mph - N/A   Overcast
6:16 PM 37.4 °F 29.3 °F 33.8 °F 87% 29.66 in 10.0 mi SSE 12.7 mph - N/A   Overcast
6:36 PM 35.6 °F 27.5 °F 33.8 °F 93% 29.67 in 10.0 mi SSE 11.5 mph - N/A   Overcast
6:56 PM 35.6 °F 27.1 °F 33.8 °F 93% 29.67 in 10.0 mi SE 12.7 mph - N/A   Overcast
7:16 PM 35.6 °F 27.1 °F 33.8 °F 93% 29.68 in 10.0 mi ESE 12.7 mph - N/A   Overcast
7:36 PM 35.6 °F 27.5 °F 33.8 °F 93% 29.69 in 10.0 mi ESE 11.5 mph - N/A   Overcast
7:56 PM 35.6 °F 26.2 °F 33.8 °F 93% 29.69 in 8.0 mi SE 15.0 mph - N/A   Overcast
8:16 PM 35.6 °F 28.0 °F 33.8 °F 93% 29.70 in 7.0 mi SE 10.4 mph - N/A   Overcast
8:36 PM 35.6 °F 28.0 °F 33.8 °F 93% 29.71 in 6.0 mi SSE 10.4 mph - N/A   Overcast
8:56 PM 35.6 °F 28.0 °F 33.8 °F 93% 29.71 in 10.0 mi SE 10.4 mph - N/A   Overcast
9:16 PM 35.6 °F 26.6 °F 33.8 °F 93% 29.71 in 10.0 mi SE 13.8 mph - N/A   Overcast
9:36 PM 35.6 °F 27.5 °F 33.8 °F 93% 29.72 in 10.0 mi SE 11.5 mph - N/A   Overcast
9:56 PM 35.6 °F 29.9 °F 33.8 °F 93% 29.73 in 10.0 mi SE 6.9 mph - N/A   Overcast
10:16 PM 35.6 °F 29.9 °F 33.8 °F 93% 29.74 in 10.0 mi SE 6.9 mph - N/A   Overcast
10:36 PM 35.6 °F 27.1 °F 33.8 °F 93% 29.74 in 10.0 mi ESE 12.7 mph - N/A   Overcast
10:56 PM 35.6 °F 28.6 °F 33.8 °F 93% 29.74 in 10.0 mi ESE 9.2 mph - N/A   Overcast
11:16 PM 37.4 °F 31.4 °F 35.6 °F 93% 29.74 in 10.0 mi ESE 8.1 mph - N/A   Overcast
11:36 PM 37.4 °F 32.1 °F 35.6 °F 93% 29.75 in 10.0 mi SSE 6.9 mph - N/A   Overcast
11:56 PM 37.4 °F 32.8 °F 35.6 °F 93% 29.75 in 10.0 mi SE 5.8 mph - N/A   Overcast